Weather History for Port Angeles, WA

Change the Weather History Date:

Monday, October 7, 2013

  Actual Average Record
Temperature  
Mean Temperature 55 °F -  
Max Temperature 61 °F 60 °F 73 °F (2012)
Min Temperature 51 °F 44 °F 34 °F (1973)
Degree Days  
Heating Degree Days 10    
Growing Degree Days 5 (Base 50)    
Moisture  
Dew Point 46 °F    
Average Humidity 75    
Maximum Humidity 92    
Minimum Humidity 53    
Precipitation  
Precipitation 0.38 in - - ()
Sea Level Pressure  
Sea Level Pressure 29.92 in    
Wind  
Wind Speed 6 mph (West)    
Max Wind Speed 24 mph    
Max Gust Speed 29 mph    
Visibility 10 miles    
Events Rain    
Averages and records for this station are not official NWS values.
T = Trace of Precipitation, MM = Missing Value Source: NWS Daily Summary

Daily Weather History Graph

Daily Weather History Graph

Search for Another Location

Airport:

Trip Planner

Search our weather history database for the weather conditions in past years. The results will help you decide how hot, cold, wet, or windy it might be!

Date:

Astronomy

Oct. 07, 2013 Rise Set
Actual Time 7:22 AM PDT 6:40 PM PDT
Civil Twilight 6:51 AM PDT 7:11 PM PDT
Nautical Twilight 6:15 AM PDT 7:47 PM PDT
Astronomical Twilight 5:38 AM PDT 8:23 PM PDT
Moon 10:33 AM PDT (10/7) 8:13 PM PDT (10/7)
Length of Visible Light 12h 20m
Length of Day
11h 17m
Waxing Crescent, 9% of the Moon is Illuminated
Oct 7
Waxing Crescent
Oct 11
First Quarter
Oct 18
Full
Oct 26
Last Quarter
Nov 3
New

Hourly Weather History & Observations

Time (PDT) Temp. Dew Point Humidity Pressure Visibility Wind Dir Wind Speed Gust Speed Precip Events Conditions
12:53 AM 54.0 °F 48.9 °F 83% 29.84 in 10.0 mi Calm Calm - N/A   Overcast
1:09 AM 55.0 °F 50.0 °F 83% 29.83 in 10.0 mi Variable 3.5 mph - N/A   Overcast
1:19 AM 55.0 °F 50.0 °F 83% 29.84 in 10.0 mi Calm Calm - N/A   Mostly Cloudy
1:53 AM 53.1 °F 48.9 °F 86% 29.83 in 10.0 mi Variable 5.8 mph - N/A   Scattered Clouds
2:53 AM 52.0 °F 48.0 °F 86% 29.83 in 10.0 mi SE 4.6 mph - N/A   Clear
3:53 AM 51.1 °F 46.9 °F 86% 29.84 in 10.0 mi North - - N/A   Partly Cloudy
4:53 AM 52.0 °F 48.9 °F 89% 29.86 in 10.0 mi Calm Calm - 0.00 in Rain Light Rain
5:53 AM 51.1 °F 48.9 °F 92% 29.87 in 10.0 mi West 5.8 mph - 0.03 in Rain Light Rain
6:35 AM 52.0 °F 48.9 °F 89% 29.88 in 7.0 mi West 9.2 mph - 0.06 in Rain Light Rain
6:53 AM 51.1 °F 48.9 °F 92% 29.89 in 6.0 mi West 8.1 mph - 0.10 in Rain Light Rain
7:53 AM 52.0 °F 48.0 °F 86% 29.90 in 5.0 mi West 6.9 mph - 0.15 in Rain Light Rain
8:53 AM 52.0 °F 46.9 °F 83% 29.91 in 10.0 mi WSW 6.9 mph - 0.06 in Rain Light Rain
9:53 AM 52.0 °F 48.0 °F 86% 29.93 in 10.0 mi West 12.7 mph - 0.02 in Rain Light Rain
10:53 AM 57.0 °F 50.0 °F 77% 29.93 in 10.0 mi WSW 8.1 mph - 0.02 in   Partly Cloudy
11:53 AM 57.9 °F 46.9 °F 67% 29.95 in 10.0 mi West 11.5 mph - N/A   Mostly Cloudy
12:53 PM 57.9 °F 45.0 °F 62% 29.95 in 10.0 mi WSW 11.5 mph - N/A   Scattered Clouds
1:53 PM 59.0 °F 44.1 °F 58% 29.96 in 8.0 mi WSW 9.2 mph - N/A   Mostly Cloudy
2:53 PM 59.0 °F 43.0 °F 55% 29.96 in 10.0 mi West 11.5 mph - N/A   Scattered Clouds
3:53 PM 59.0 °F 42.1 °F 53% 29.97 in 10.0 mi West 10.4 mph - N/A   Partly Cloudy
4:53 PM 57.9 °F 42.1 °F 56% 29.96 in 10.0 mi West 12.7 mph 21.9 mph N/A   Overcast
5:53 PM 55.9 °F 45.0 °F 67% 29.97 in 10.0 mi WNW 6.9 mph - N/A   Overcast
6:53 PM 55.0 °F 45.0 °F 69% 29.98 in 10.0 mi SW 6.9 mph - 0.00 in Rain Light Rain
7:53 PM 53.1 °F 46.9 °F 80% 29.99 in 10.0 mi WSW 3.5 mph - 0.00 in   Overcast
8:53 PM 55.0 °F 45.0 °F 69% 29.99 in 10.0 mi West 15.0 mph - N/A   Overcast
9:53 PM 54.0 °F 45.0 °F 72% 29.99 in 10.0 mi West 10.4 mph - N/A   Overcast
10:53 PM 54.0 °F 41.0 °F 62% 29.99 in 10.0 mi WNW 24.2 mph 28.8 mph N/A   Mostly Cloudy
11:53 PM 55.0 °F 39.9 °F 57% 30.00 in 10.0 mi West 17.3 mph 24.2 mph N/A   Overcast